This is the latest recevied weather packets stored in our database for station/object W6SNO-1. If no packets are shown the sender has not sent any weather packets the latest 10 day(s).
| Time | Temp. | Humidity | Pressure | Rain* | Wind** | Luminosity | Snow |
|---|---|---|---|---|---|---|---|
| 1787791606 | 30° C | 27% | 1013.5 hPa | 0 mm | - | 71 W/m² | - |
| 1787791302 | 29.44° C | 27% | 1013.5 hPa | 0 mm | - | 65 W/m² | - |
| 1787790997 | 30° C | 26% | 1013.6 hPa | 0 mm | - | 57 W/m² | - |
| 1787790693 | 30° C | 27% | 1013.2 hPa | 0 mm | - | 119 W/m² | - |
| 1787790387 | 30° C | 26% | 1013.1 hPa | 0 mm | - | 234 W/m² | - |
| 1787790083 | 30.56° C | 26% | 1013.6 hPa | 0 mm | - | 264 W/m² | - |
| 1787789774 | 31.11° C | 27% | 1013.6 hPa | 0 mm | - | 279 W/m² | - |
| 1787789474 | 31.11° C | 27% | 1013.3 hPa | 0 mm | - | 294 W/m² | - |
| 1787789172 | 31.11° C | 28% | 1013.3 hPa | 0 mm | - | 311 W/m² | - |
| 1787788867 | 31.67° C | 28% | 1013.6 hPa | 0 mm | - | 325 W/m² | - |
| 1787788565 | 31.67° C | 28% | 1013.6 hPa | 0 mm | - | 339 W/m² | - |
| 1787788260 | 32.22° C | 28% | 1013.7 hPa | 0 mm | - | 358 W/m² | - |
| 1787787955 | 31.67° C | 28% | 1013.8 hPa | 0 mm | - | 374 W/m² | - |
| 1787787650 | 31.67° C | 27% | 1013.5 hPa | 0 mm | - | 388 W/m² | - |
| 1787787344 | 32.22° C | 27% | 1013.3 hPa | 0 mm | - | 401 W/m² | - |
| 1787787043 | 31.67° C | 27% | 1013.6 hPa | 0 mm | - | 417 W/m² | - |
| 1787786743 | 32.22° C | 27% | 1013.7 hPa | 0 mm | - | 431 W/m² | - |
| 1787786444 | 32.22° C | 26% | 1013.7 hPa | 0 mm | - | 448 W/m² | - |
| 1787786139 | 32.22° C | 25% | 1013.8 hPa | 0 mm | - | 475 W/m² | - |
| 1787785835 | 32.22° C | 25% | 1013.9 hPa | 0 mm | - | 475 W/m² | - |
| 1787785530 | 31.67° C | 25% | 1013.8 hPa | 0 mm | - | 501 W/m² | - |
| 1787785230 | 31.67° C | 25% | 1014.1 hPa | 0 mm | - | 501 W/m² | - |
| 1787784925 | 31.67° C | 25% | 1014 hPa | 0 mm | - | 521 W/m² | - |
| 1787784623 | 31.67° C | 25% | 1014 hPa | 0 mm | - | 526 W/m² | - |
| 1787784323 | 32.22° C | 25% | 1014.1 hPa | 0 mm | - | 540 W/m² | - |
* Rain latest hour (hover to see other rain measurements)
** Current wind speed in m/s (hover to see current wind gust speed)